Oak Ridge, TN

1:29 PM EDT on March 29, 2017 (GMT -0400)
Oak Ridge

Weather History for KOQT - April, 2013

Change the Weather History Date:

Tuesday, April 2, 2013

  Actual Average (KTYS) Record (KTYS)
Temperature  
Mean Temperature 46 °F -  
Max Temperature 57 °F 67 °F 88 °F (1940)
Min Temperature 36 °F 43 °F 24 °F (1881)
Degree Days  
Heating Degree Days 18    
Moisture  
Dew Point 19 °F    
Average Humidity 34    
Maximum Humidity 67    
Minimum Humidity 20    
Precipitation  
Precipitation 0.00 in - - ()
Sea Level Pressure  
Sea Level Pressure 30.20 in    
Wind  
Wind Speed 4 mph (North)    
Max Wind Speed 7 mph    
Max Gust Speed -    
Visibility 10 miles    
Events      
Averages and records for this station are not official NWS values.
T = Trace of Precipitation, MM = Missing Value Source: NWS Daily Summary

Daily Weather History Graph

Daily Weather History Graph

Search for Another Location

Airport or City:

Trip Planner

Search our weather history database for the weather conditions in past years. The results will help you decide how hot, cold, wet, or windy it might be!

Date:

Astronomy

Apr. 02, 2013 Rise Set
Actual Time 7:21 AM EDT 7:59 PM EDT
Civil Twilight 6:55 AM EDT 8:25 PM EDT
Nautical Twilight 6:25 AM EDT 8:56 PM EDT
Astronomical Twilight 5:53 AM EDT 9:27 PM EDT
Moon 1:56 AM EDT (4/2) 12:18 PM EDT (4/2)
Length of Visible Light 13h 30m
Length of Day
12h 38m
Waning Gibbous, 56% of the Moon is Illuminated
Apr 2
Waning Gibbous
Apr 3
Last Quarter
Apr 10
New
Apr 18
First Quarter
Apr 25
Full

Hourly Weather History & Observations

Time (EDT) Temp. Windchill Dew Point Humidity Pressure Visibility Wind Dir Wind Speed Gust Speed Precip Events Conditions
12:53 AM 48.0 °F - 27.0 °F 44% 30.11 in 10.0 mi Variable 4.6 mph - N/A   Clear
1:53 AM 46.0 °F 43.1 °F 23.0 °F 40% 30.12 in 10.0 mi North 5.8 mph - N/A   Clear
2:53 AM 44.1 °F 42.5 °F 21.9 °F 42% 30.13 in 10.0 mi North 3.5 mph - N/A   Clear
3:53 AM 42.1 °F 40.2 °F 21.0 °F 43% 30.14 in 10.0 mi North 3.5 mph - N/A   Clear
4:53 AM 42.1 °F 39.2 °F 21.0 °F 43% 30.16 in 10.0 mi NNW 4.6 mph - N/A   Clear
5:53 AM 39.0 °F - 21.0 °F 49% 30.19 in 10.0 mi Calm Calm - N/A   Clear
6:53 AM 36.0 °F - 25.0 °F 64% 30.22 in 10.0 mi Calm Calm - N/A   Clear
7:53 AM 36.0 °F - 26.1 °F 67% 30.24 in 10.0 mi Calm Calm - N/A   Clear
8:53 AM 41.0 °F 38.0 °F 19.0 °F 41% 30.25 in 10.0 mi NNE 4.6 mph - N/A   Clear
9:53 AM 44.1 °F 40.8 °F 17.1 °F 34% 30.26 in 10.0 mi Variable 5.8 mph - N/A   Clear
10:53 AM 45.0 °F 41.2 °F 19.0 °F 36% 30.27 in 10.0 mi East 6.9 mph - N/A   Clear
11:53 AM 46.9 °F - 18.0 °F 32% 30.26 in 10.0 mi ESE 5.8 mph - N/A   Clear
12:53 PM 48.9 °F - 17.1 °F 28% 30.24 in 10.0 mi Calm Calm - N/A   Clear
1:53 PM 51.1 °F - 17.1 °F 26% 30.22 in 10.0 mi East 5.8 mph - N/A   Clear
2:53 PM 54.0 °F - 18.0 °F 24% 30.20 in 10.0 mi Calm Calm - N/A   Clear
3:53 PM 55.9 °F - 17.1 °F 22% 30.17 in 10.0 mi WNW 5.8 mph - N/A   Clear
4:53 PM 57.0 °F - 19.0 °F 23% 30.16 in 10.0 mi Variable 3.5 mph - N/A   Clear
5:53 PM 55.9 °F - 16.0 °F 21% 30.17 in 10.0 mi Calm Calm - N/A   Mostly Cloudy
6:53 PM 55.0 °F - 14.0 °F 20% 30.17 in 10.0 mi West 3.5 mph - N/A   Overcast
7:53 PM 54.0 °F - 15.1 °F 22% 30.18 in 10.0 mi WNW 4.6 mph - N/A   Overcast
8:53 PM 52.0 °F - 15.1 °F 23% 30.19 in 10.0 mi NNW 3.5 mph - N/A   Overcast
9:53 PM 50.0 °F - 18.0 °F 28% 30.22 in 10.0 mi Calm Calm - N/A   Scattered Clouds
10:53 PM 48.9 °F - 14.0 °F 25% 30.24 in 10.0 mi NNW 4.6 mph - N/A   Clear
11:53 PM 46.9 °F - 16.0 °F 29% 30.24 in 10.0 mi Calm Calm - N/A   Clear